This is the latest recevied weather packets stored in our database for station/object NK7E-2. If no packets are shown the sender has not sent any weather packets the latest 10 day(s).
| Time | Temp. | Humidity | Pressure | Rain* | Wind** | Luminosity | Snow |
|---|---|---|---|---|---|---|---|
| 1787766917 | 38.33° C | 19% | 1030.8 hPa | 0 mm | - | - | - |
| 1787766317 | 37.78° C | 19% | 1030.8 hPa | 0 mm | - | - | - |
| 1787765717 | 38.33° C | 20% | 1030.8 hPa | 0 mm | - | - | - |
| 1787765119 | 37.22° C | 21% | 1030.8 hPa | 0 mm | - | - | - |
| 1787764517 | 36.67° C | 21% | 1030.6 hPa | 0 mm | - | - | - |
| 1787763917 | 36.67° C | 21% | 1030.6 hPa | 0 mm | - | - | - |
| 1787763317 | 36.11° C | 21% | 1030.3 hPa | 0 mm | - | - | - |
| 1787762717 | 36.11° C | 21% | 1030.2 hPa | 0 mm | - | - | - |
| 1787762117 | 36.11° C | 21% | 1030.5 hPa | 0 mm | - | - | - |
| 1787761517 | 35.56° C | 21% | 1030.2 hPa | 0 mm | - | - | - |
| 1787760917 | 35.56° C | 22% | 1030.2 hPa | 0 mm | - | - | - |
| 1787760317 | 35° C | 22% | 1030.4 hPa | 0 mm | - | - | - |
| 1787759717 | 35° C | 22% | 1030.4 hPa | 0 mm | - | - | - |
| 1787759117 | 34.44° C | 22% | 1030.4 hPa | 0 mm | - | - | - |
| 1787758517 | 33.89° C | 23% | 1030 hPa | 0 mm | - | - | - |
| 1787757917 | 33.33° C | 24% | 1029.9 hPa | 0 mm | - | - | - |
| 1787757317 | 32.22° C | 27% | 1029.7 hPa | 0 mm | - | - | - |
| 1787756717 | 30.56° C | 29% | 1029.7 hPa | 0 mm | - | - | - |
| 1787756117 | 30° C | 30% | 1029.2 hPa | 0 mm | - | - | - |
| 1787755517 | 30° C | 29% | 1029 hPa | 0 mm | - | - | - |
| 1787754917 | 30° C | 30% | 1029.1 hPa | 0 mm | - | - | - |
| 1787754317 | 30° C | 30% | 1029 hPa | 0 mm | - | - | - |
| 1787753717 | 29.44° C | 32% | 1028.5 hPa | 0 mm | - | - | - |
| 1787753117 | 28.89° C | 32% | 1028.3 hPa | 0 mm | - | - | - |
| 1787752517 | 28.33° C | 31% | 1028.5 hPa | 0 mm | - | - | - |
* Rain latest hour (hover to see other rain measurements)
** Current wind speed in m/s (hover to see current wind gust speed)